Fort Atkinson, Wisconsin, United States (53538)
Lat: 42.93N, Lon: 88.84W
Wx Zone: WIZ064
Local Info
Past Weather Observations for Today

NOTE: This archive is for the closest National Weather Service station to Fort Atkinson. Information may differ from the station used for current weather conditions.

Click here for Long-term Archive

Time Weather Temperature Dewpoint Humidity Pressure Winds Precip Visibility
12:55
Partly Cloudy
72°F / 22°C 57°F / 14°C 61% 30.04 in
(1017 mb)
Calm - 10SM
12:35
Partly Cloudy
72°F / 22°C 57°F / 14°C 61% 30.04 in
(1017 mb)
W 6.9 mph
(W 11 kph)
- 10SM
12:15
Partly Cloudy
70°F / 21°C 59°F / 15°C 69% 30.06 in
(1018 mb)
W 3.5 mph
(W 6 kph)
- 10SM
11:55
Mostly Cloudy
70°F / 21°C 59°F / 15°C 69% 30.06 in
(1018 mb)
W 5.8 mph
(W 9 kph)
- 10SM
11:35
Mostly Cloudy
68°F / 20°C 59°F / 15°C 73% 30.06 in
(1018 mb)
Calm - 10SM
11:15
Mostly Cloudy
68°F / 20°C 59°F / 15°C 73% 30.06 in
(1018 mb)
N 3.5 mph
(N 6 kph)
- 10SM
10:55
Mostly Cloudy
66°F / 19°C 61°F / 16°C 83% 30.06 in
(1018 mb)
Calm - 10SM
10:35
Overcast
64°F / 18°C 59°F / 15°C 83% 30.06 in
(1018 mb)
Calm - 10SM
10:15
Overcast
63°F / 17°C 59°F / 15°C 88% 30.06 in
(1018 mb)
Calm - 10SM
09:55
Overcast
63°F / 17°C 59°F / 15°C 88% 30.06 in
(1018 mb)
Calm 0.01 in
(0.25 mm)
10SM
09:35
Overcast
61°F / 16°C 59°F / 15°C 94% 30.06 in
(1018 mb)
Calm 0.01 in
(0.25 mm)
10SM
09:15
Overcast
61°F / 16°C 59°F / 15°C 94% 30.06 in
(1018 mb)
N 3.5 mph
(N 6 kph)
0.01 in
(0.25 mm)
10SM
08:55
Overcast
59°F / 15°C 59°F / 15°C 100% 30.06 in
(1018 mb)
N 3.5 mph
(N 6 kph)
0.01 in
(0.25 mm)
7SM
08:35
Overcast
59°F / 15°C 59°F / 15°C 100% 30.06 in
(1018 mb)
N 6.9 mph
(N 11 kph)
0.01 in
(0.25 mm)
7SM
08:15
Overcast
Fog And Mist
59°F / 15°C 59°F / 15°C 100% 30.06 in
(1018 mb)
NNW 4.6 mph
(NNW 7 kph)
- 5SM
07:55
Overcast
Fog And Mist
59°F / 15°C 57°F / 14°C 94% 30.06 in
(1018 mb)
NNW 3.5 mph
(NNW 6 kph)
0.01 in
(0.25 mm)
5SM
07:35
Overcast
Fog And Mist
57°F / 14°C 57°F / 14°C 100% 30.06 in
(1018 mb)
N 3.5 mph
(N 6 kph)
0.01 in
(0.25 mm)
5SM
07:15
Overcast
Fog And Mist
57°F / 14°C 57°F / 14°C 100% 30.06 in
(1018 mb)
N 5.8 mph
(N 9 kph)
- 5SM
06:55
Overcast
57°F / 14°C 57°F / 14°C 100% 30.06 in
(1018 mb)
N 6.9 mph
(N 11 kph)
0.02 in
(0.51 mm)
7SM
06:35
Mostly Cloudy
59°F / 15°C 57°F / 14°C 94% 30.04 in
(1017 mb)
N 5.8 mph
(N 9 kph)
0.01 in
(0.25 mm)
10SM
06:15
Clear
57°F / 14°C 57°F / 14°C 100% 30.04 in
(1017 mb)
NW 3.5 mph
(NW 6 kph)
0.01 in
(0.25 mm)
10SM
05:55
Clear
57°F / 14°C 57°F / 14°C 100% 30.04 in
(1017 mb)
Calm 0.02 in
(0.51 mm)
7SM
05:35
Clear
55°F / 13°C 55°F / 13°C 100% 30.04 in
(1017 mb)
Calm 0.01 in
(0.25 mm)
7SM
05:15
Clear
57°F / 14°C 55°F / 13°C 94% 30.04 in
(1017 mb)
Calm 0.01 in
(0.25 mm)
10SM
04:55
Clear
57°F / 14°C 55°F / 13°C 94% 30.04 in
(1017 mb)
Calm 0.04 in
(1.02 mm)
7SM
04:35
Clear
57°F / 14°C 55°F / 13°C 94% 30.04 in
(1017 mb)
W 3.5 mph
(W 6 kph)
0.03 in
(0.76 mm)
10SM
04:15
Partly Cloudy
57°F / 14°C 55°F / 13°C 94% 30.04 in
(1017 mb)
Calm 0.01 in
(0.25 mm)
10SM
03:55
Mostly Cloudy
57°F / 14°C 57°F / 14°C 100% 30.01 in
(1016 mb)
Calm 0.08 in
(2.03 mm)
10SM
03:35
Mostly Cloudy
57°F / 14°C 57°F / 14°C 100% 30.01 in
(1016 mb)
Calm 0.06 in
(1.52 mm)
10SM
03:15
Overcast
57°F / 14°C 57°F / 14°C 100% 30.01 in
(1016 mb)
W 3.5 mph
(W 6 kph)
0.03 in
(0.76 mm)
10SM
02:55
Mostly Cloudy
57°F / 14°C 55°F / 13°C 94% 30.01 in
(1016 mb)
Calm 0.11 in
(2.79 mm)
10SM
02:35
Partly Cloudy
57°F / 14°C 57°F / 14°C 100% 30.01 in
(1016 mb)
Calm 0.07 in
(1.78 mm)
10SM
02:15
Clear
57°F / 14°C 55°F / 13°C 94% 30.01 in
(1016 mb)
Calm 0.04 in
(1.02 mm)
10SM
01:55
Clear
55°F / 13°C 55°F / 13°C 100% 30.01 in
(1016 mb)
Calm 0.12 in
(3.05 mm)
10SM
01:35
Partly Cloudy
57°F / 14°C 57°F / 14°C 100% 30.01 in
(1016 mb)
SSW 3.5 mph
(SSW 6 kph)
0.07 in
(1.78 mm)
10SM
01:15
Partly Cloudy
57°F / 14°C 55°F / 13°C 94% 30.01 in
(1016 mb)
Calm 0.03 in
(0.76 mm)
10SM
00:55
Clear
57°F / 14°C 57°F / 14°C 100% 30.01 in
(1016 mb)
Calm 0.03 in
(0.76 mm)
10SM
00:35
Clear
57°F / 14°C 57°F / 14°C 100% 30.01 in
(1016 mb)
Calm 0.01 in
(0.25 mm)
10SM
00:15
Clear
57°F / 14°C 55°F / 13°C 94% 30.04 in
(1017 mb)
SW 4.6 mph
(SW 7 kph)
- 10SM
Time Weather Temperature Dewpoint Humidity Pressure Winds Precip Visibility


Weather for websites

WeatherForYou.com, LLC is not responsible for any damages or problems caused by this service. Current weather conditions are obtained from the closest station including government and personal stations which may have varying degrees of accuracy. Weather forecasts are derived from the NOAA NDFD. Like all things, this site belongs to Jesus Christ... He just trusts me to maintain it. If you have any questions or comments email webmaster@weatherforyou.com

Copyright © 2014, WeatherForYou.com LLC. All rights reserved.